TimeCET,TemperatureF,Dew PointF,Humidity,Sea Level PressureIn,VisibilityMPH,Wind Direction,Wind SpeedMPH,Gust SpeedMPH,PrecipitationIn,Events,Conditions,WindDirDegrees,DateUTC
12:15 AM,51.8,48.2,88,30.04,6.2,NNE,4.6,-,N/A,,Mostly Cloudy,30,2012-11-15 23:15:00
12:45 AM,51.8,48.2,88,30.04,6.2,NNE,4.6,-,N/A,,Scattered Clouds,20,2012-11-15 23:45:00
1:15 AM,51.8,46.4,82,30.04,6.2,NNE,4.6,-,N/A,,Partly Cloudy,20,2012-11-16 00:15:00
1:45 AM,50.0,46.4,87,30.01,6.2,North,2.3,-,N/A,,Partly Cloudy,10,2012-11-16 00:45:00
2:15 AM,48.2,44.6,87,30.01,-9999.0,North,2.3,-,N/A,,Clear,360,2012-11-16 01:15:00
2:45 AM,48.2,44.6,87,30.01,6.2,North,2.3,-,N/A,,Partly Cloudy,10,2012-11-16 01:45:00
3:15 AM,48.2,44.6,87,30.01,6.2,NNE,3.5,-,N/A,,Partly Cloudy,20,2012-11-16 02:15:00
3:45 AM,48.2,44.6,87,30.01,6.2,NNE,3.5,-,N/A,,Partly Cloudy,30,2012-11-16 02:45:00
4:15 AM,46.4,44.6,93,30.01,6.2,NNE,4.6,-,N/A,,Partly Cloudy,30,2012-11-16 03:15:00
4:45 AM,46.4,42.8,87,30.01,6.2,NE,4.6,-,N/A,,Partly Cloudy,40,2012-11-16 03:45:00
5:15 AM,46.4,42.8,87,30.01,6.2,NNE,4.6,-,N/A,,Partly Cloudy,30,2012-11-16 04:15:00
5:45 AM,46.4,42.8,87,30.01,6.2,NNE,3.5,-,N/A,,Partly Cloudy,20,2012-11-16 04:45:00
6:15 AM,46.4,42.8,87,30.01,6.2,NE,5.8,-,N/A,,Scattered Clouds,40,2012-11-16 05:15:00
6:45 AM,44.6,41.0,87,30.01,6.2,NE,4.6,-,N/A,,Scattered Clouds,40,2012-11-16 05:45:00
7:15 AM,44.6,41.0,87,30.01,6.2,NE,5.8,-,N/A,,Partly Cloudy,40,2012-11-16 06:15:00
7:45 AM,44.6,41.0,87,30.01,6.2,NE,5.8,-,N/A,,Partly Cloudy,50,2012-11-16 06:45:00
8:15 AM,46.4,42.8,87,30.01,6.2,NE,4.6,-,N/A,,Partly Cloudy,40,2012-11-16 07:15:00
8:45 AM,48.2,44.6,87,30.04,6.2,NNE,3.5,-,N/A,,Partly Cloudy,20,2012-11-16 07:45:00
9:15 AM,50.0,48.2,94,30.04,6.2,North,4.6,-,N/A,,Scattered Clouds,350,2012-11-16 08:15:00
9:45 AM,53.6,48.2,82,30.04,6.2,NNW,4.6,-,N/A,,Scattered Clouds,340,2012-11-16 08:45:00
10:15 AM,55.4,50.0,82,30.04,6.2,NNW,4.6,-,N/A,,Scattered Clouds,340,2012-11-16 09:15:00
10:45 AM,57.2,50.0,77,30.04,6.2,North,4.6,-,N/A,,Mostly Cloudy,360,2012-11-16 09:45:00
11:15 AM,59.0,50.0,72,30.04,6.2,North,3.5,-,N/A,,Scattered Clouds,10,2012-11-16 10:15:00
11:45 AM,59.0,51.8,77,30.04,6.2,North,3.5,-,N/A,,Scattered Clouds,10,2012-11-16 10:45:00
12:15 PM,60.8,51.8,72,30.04,6.2,NNW,3.5,-,N/A,,Partly Cloudy,330,2012-11-16 11:15:00
12:45 PM,62.6,51.8,68,30.04,6.2,NNW,3.5,-,N/A,,Partly Cloudy,330,2012-11-16 11:45:00
1:15 PM,62.6,50.0,63,30.01,6.2,WNW,3.5,-,N/A,,Scattered Clouds,300,2012-11-16 12:15:00
1:45 PM,64.4,50.0,59,30.01,6.2,NNW,2.3,-,N/A,,Partly Cloudy,340,2012-11-16 12:45:00
2:15 PM,64.4,50.0,59,30.01,6.2,NW,4.6,-,N/A,,Partly Cloudy,310,2012-11-16 13:15:00
2:45 PM,64.4,48.2,56,30.01,6.2,NNW,3.5,-,N/A,,Partly Cloudy,340,2012-11-16 13:45:00
3:15 PM,62.6,48.2,59,30.01,6.2,NNW,4.6,-,N/A,,Partly Cloudy,330,2012-11-16 14:15:00
3:45 PM,62.6,50.0,63,30.01,6.2,NNW,2.3,-,N/A,,Scattered Clouds,340,2012-11-16 14:45:00
4:15 PM,62.6,48.2,59,30.01,6.2,NNW,2.3,-,N/A,,Scattered Clouds,330,2012-11-16 15:15:00
4:45 PM,62.6,50.0,63,30.01,6.2,Calm,Calm,-,N/A,,Scattered Clouds,0,2012-11-16 15:45:00
5:15 PM,59.0,48.2,67,30.01,6.2,Calm,Calm,-,N/A,,Scattered Clouds,0,2012-11-16 16:15:00
5:45 PM,57.2,48.2,72,30.01,6.2,East,2.3,-,N/A,,Scattered Clouds,90,2012-11-16 16:45:00
6:15 PM,53.6,50.0,88,30.01,6.2,ESE,3.5,-,N/A,,Scattered Clouds,110,2012-11-16 17:15:00
6:45 PM,53.6,50.0,88,30.01,6.2,East,3.5,-,N/A,,Partly Cloudy,90,2012-11-16 17:45:00
7:15 PM,53.6,50.0,88,30.01,6.2,NNE,1.2,-,N/A,,Partly Cloudy,30,2012-11-16 18:15:00
7:45 PM,53.6,50.0,88,30.04,6.2,NNE,1.2,-,N/A,,Partly Cloudy,30,2012-11-16 18:45:00
8:15 PM,53.6,50.0,88,30.04,6.2,East,1.2,-,N/A,,Partly Cloudy,80,2012-11-16 19:15:00
8:45 PM,51.8,48.2,88,30.04,6.2,SSE,1.2,-,N/A,,Partly Cloudy,150,2012-11-16 19:45:00
9:15 PM,51.8,48.2,88,30.04,-9999.0,NNW,2.3,-,N/A,,Clear,330,2012-11-16 20:15:00
9:45 PM,51.8,48.2,88,30.04,-9999.0,NNE,2.3,-,N/A,,Clear,20,2012-11-16 20:45:00
10:15 PM,50.0,48.2,94,30.04,6.2,NNE,1.2,-,N/A,,Partly Cloudy,30,2012-11-16 21:15:00
10:45 PM,48.2,46.4,93,30.04,6.2,NE,2.3,-,N/A,,Partly Cloudy,50,2012-11-16 21:45:00
11:15 PM,48.2,48.2,100,30.04,6.2,NNE,3.5,-,N/A,,Partly Cloudy,20,2012-11-16 22:15:00
11:45 PM,50.0,48.2,94,30.04,6.2,NE,3.5,-,N/A,,Scattered Clouds,40,2012-11-16 22:45:00